| time (UTC) | temp C | wind direction | speed KPH | gust KPH | rain 1hr cm | rain 24hr cm | rain mn cm | humidity % | barometer mb |
| 20260903102910 | 62 | 177 | 0.0 | 16.1 | 0.00 | 0.00 | 0.00 | 100 | 1012.8 |
| 20260903102629 | 62 | 180 | 4.8 | 16.1 | 0.00 | 0.00 | 0.00 | 100 | 1012.8 |
| 20260903101857 | 62 | 170 | 0.0 | 17.7 | 0.00 | 0.00 | 0.00 | 100 | 1012.6 |
| 20260903101615 | 62 | 165 | 4.8 | 17.7 | 0.00 | 0.00 | 0.00 | 100 | 1012.6 |
| 20260903100843 | 62 | 167 | 3.2 | 11.3 | 0.00 | 0.00 | 0.00 | 100 | 1012.6 |
| 20260903100337 | 62 | 178 | 6.4 | 11.3 | 0.00 | 0.00 | 0.00 | 100 | 1012.6 |
| 20260903095838 | 62 | 180 | 1.6 | 11.3 | 0.00 | 0.00 | 0.00 | 100 | 1012.6 |
| 20260903095338 | 62 | 157 | 3.2 | 9.7 | 0.00 | 0.00 | 0.00 | 100 | 1012.6 |
| 20260903094836 | 62 | 123 | 1.6 | 11.3 | 0.00 | 0.00 | 0.00 | 100 | 1012.8 |
| 20260903094323 | 62 | 144 | 1.6 | 12.9 | 0.00 | 0.00 | 0.00 | 100 | 1012.9 |
| 20260903093820 | 62 | 146 | 1.6 | 12.9 | 0.00 | 0.00 | 0.00 | 100 | 1012.9 |
| 20260903093542 | 62 | 158 | 3.2 | 14.5 | 0.00 | 0.00 | 0.00 | 100 | 1013.0 |
| 20260903092804 | 62 | 184 | 6.4 | 14.5 | 0.00 | 0.00 | 0.00 | 100 | 1013.0 |
| 20260903092800 | 62 | 208 | 6.4 | 14.5 | 0.00 | 0.00 | 0.00 | 100 | 1013.0 |
| 20260903091800 | 62 | 153 | 8.0 | 12.9 | 0.00 | 0.00 | 0.00 | 100 | 1013.1 |
| 20260903091300 | 62 | 157 | 1.6 | 12.9 | 0.00 | 0.00 | 0.00 | 100 | 1013.2 |
| 20260903091027 | 62 | 139 | 4.8 | 16.1 | 0.00 | 0.00 | 0.00 | 100 | 1013.2 |
| 20260903090257 | 62 | 160 | 4.8 | 16.1 | 0.00 | 0.00 | 0.00 | 100 | 1013.2 |
| 20260903085758 | 62 | 135 | 1.6 | 16.1 | 0.00 | 0.00 | 0.00 | 100 | 1013.2 |
| 20260903085258 | 62 | 198 | 6.4 | 16.1 | 0.00 | 0.00 | 0.00 | 100 | 1013.2 |
| 20260903084757 | 62 | 178 | 9.7 | 17.7 | 0.00 | 0.00 | 0.00 | 100 | 1013.3 |
| 20260903084256 | 62 | 157 | 9.7 | 17.7 | 0.00 | 0.00 | 0.00 | 100 | 1013.2 |
| 20260903083757 | 62 | 126 | 4.8 | 14.5 | 0.00 | 0.00 | 0.00 | 100 | 1013.2 |
| 20260903083524 | 62 | 184 | 4.8 | 14.5 | 0.00 | 0.00 | 0.00 | 100 | 1013.2 |
| 20260903083015 | 62 | 146 | 6.4 | 14.5 | 0.00 | 0.00 | 0.00 | 100 | 1013.2 |
| 20260903082238 | 62 | 189 | 0.0 | 14.5 | 0.00 | 0.00 | 0.00 | 100 | 1013.2 |
| 20260903081735 | 62 | 192 | 0.0 | 12.9 | 0.00 | 0.00 | 0.00 | 100 | 1013.2 |
| 20260903081235 | 62 | 154 | 8.0 | 12.9 | 0.00 | 0.00 | 0.00 | 100 | 1013.1 |
| 20260903081007 | 62 | 168 | 0.0 | 14.5 | 0.00 | 0.00 | 0.00 | 100 | 1013.1 |
| 20260903080229 | 62 | 168 | 9.7 | 14.5 | 0.00 | 0.00 | 0.00 | 100 | 1013.1 |
| 20260903075729 | 62 | 151 | 8.0 | 14.5 | 0.00 | 0.00 | 0.00 | 100 | 1013.2 |
| 20260903075230 | 62 | 188 | 3.2 | 9.7 | 0.00 | 0.00 | 0.00 | 100 | 1013.2 |
| 20260903074710 | 62 | 151 | 0.0 | 11.3 | 0.00 | 0.00 | 0.00 | 100 | 1013.2 |
| 20260903074156 | 62 | 168 | 8.0 | 11.3 | 0.00 | 0.00 | 0.00 | 100 | 1013.3 |
| 20260903073656 | 62 | 154 | 3.2 | 16.1 | 0.00 | 0.00 | 0.00 | 100 | 1013.3 |
| 20260903073150 | 62 | 210 | 6.4 | 16.1 | 0.00 | 0.00 | 0.00 | 100 | 1013.4 |
| 20260903072629 | 62 | 161 | 8.0 | 12.9 | 0.00 | 0.00 | 0.00 | 100 | 1013.3 |
| 20260903072128 | 62 | 150 | 6.4 | 11.3 | 0.00 | 0.00 | 0.00 | 100 | 1013.4 |
| 20260903071630 | 62 | 113 | 4.8 | 14.5 | 0.00 | 0.00 | 0.00 | 100 | 1013.4 |
| 20260903071109 | 62 | 101 | 0.0 | 14.5 | 0.00 | 0.00 | 0.00 | 100 | 1013.5 |
| 20260903070834 | 62 | 170 | 8.0 | 12.9 | 0.00 | 0.00 | 0.00 | 100 | 1013.4 |
| 20260903065601 | 62 | 158 | 6.4 | 16.1 | 0.00 | 0.00 | 0.00 | 100 | 1013.4 |
| 20260903065331 | 62 | 163 | 8.0 | 14.5 | 0.00 | 0.00 | 0.00 | 100 | 1013.4 |
| 20260903064600 | 62 | 151 | 6.4 | 14.5 | 0.00 | 0.00 | 0.00 | 100 | 1013.4 |
| 20260903064100 | 62 | 135 | 0.0 | 9.7 | 0.00 | 0.00 | 0.00 | 100 | 1013.5 |
| 20260903063553 | 62 | 189 | 0.0 | 12.9 | 0.00 | 0.00 | 0.00 | 100 | 1013.5 |
| 20260903063041 | 62 | 195 | 3.2 | 19.3 | 0.00 | 0.00 | 0.00 | 100 | 1013.5 |
| 20260903062541 | 62 | 198 | 0.0 | 19.3 | 0.00 | 0.00 | 0.00 | 100 | 1013.5 |
| 20260903062036 | 62 | 195 | 6.4 | 16.1 | 0.00 | 0.00 | 0.00 | 100 | 1013.5 |
| 20260903061535 | 62 | 163 | 4.8 | 14.5 | 0.00 | 0.00 | 0.00 | 100 | 1013.5 |
| 20260903061035 | 62 | 135 | 9.7 | 16.1 | 0.00 | 0.00 | 0.00 | 100 | 1013.5 |
| 20260903060539 | 62 | 151 | 9.7 | 14.5 | 0.00 | 0.00 | 0.00 | 100 | 1013.5 |
| 20260903060535 | 62 | 181 | 6.4 | 16.1 | 0.00 | 0.00 | 0.00 | 100 | 1013.6 |
| 20260903055534 | 62 | 142 | 8.0 | 16.1 | 0.00 | 0.00 | 0.00 | 100 | 1013.4 |
| 20260903055033 | 62 | 158 | 6.4 | 16.1 | 0.00 | 0.00 | 0.00 | 100 | 1013.4 |
| 20260903054530 | 62 | 133 | 9.7 | 16.1 | 0.00 | 0.00 | 0.00 | 100 | 1013.3 |
| 20260903054025 | 62 | 199 | 11.3 | 19.3 | 0.00 | 0.00 | 0.00 | 100 | 1013.3 |
| 20260903053525 | 62 | 150 | 9.7 | 19.3 | 0.00 | 0.00 | 0.00 | 100 | 1013.3 |
| 20260903053023 | 62 | 125 | 8.0 | 14.5 | 0.00 | 0.00 | 0.00 | 100 | 1013.3 |
| 20260903052519 | 62 | 167 | 3.2 | 22.5 | 0.00 | 0.00 | 0.00 | 100 | 1013.2 |
| 20260903052017 | 62 | 163 | 11.3 | 22.5 | 0.00 | 0.00 | 0.00 | 100 | 1013.3 |
| 20260903051746 | 62 | 151 | 9.7 | 16.1 | 0.00 | 0.00 | 0.00 | 100 | 1013.2 |
| 20260903051016 | 62 | 151 | 0.0 | 17.7 | 0.00 | 0.00 | 0.00 | 100 | 1013.2 |
| 20260903050747 | 62 | 170 | 8.0 | 17.7 | 0.00 | 0.00 | 0.00 | 100 | 1013.2 |
| 20260903050232 | 62 | 142 | 6.4 | 17.7 | 0.00 | 0.00 | 0.00 | 100 | 1013.1 |
| 20260903045501 | 62 | 178 | 8.0 | 17.7 | 0.00 | 0.00 | 0.00 | 100 | 1013.2 |
| 20260903045000 | 62 | 150 | 1.6 | 16.1 | 0.00 | 0.00 | 0.00 | 100 | 1013.1 |
| 20260903044501 | 62 | 139 | 4.8 | 16.1 | 0.00 | 0.00 | 0.00 | 100 | 1013.2 |
| 20260903043958 | 62 | 130 | 4.8 | 11.3 | 0.00 | 0.00 | 0.00 | 100 | 1013.1 |
| 20260903043456 | 62 | 150 | 6.4 | 11.3 | 0.00 | 0.00 | 0.00 | 100 | 1013.1 |
| 20260903043227 | 62 | 126 | 1.6 | 12.9 | 0.00 | 0.00 | 0.00 | 100 | 1013.1 |
| 20260903042456 | 62 | 154 | 3.2 | 12.9 | 0.00 | 0.00 | 0.00 | 100 | 1013.1 |
| 20260903041956 | 62 | 154 | 3.2 | 12.9 | 0.00 | 0.00 | 0.00 | 100 | 1013.1 |
| 20260903041443 | 62 | 160 | 0.0 | 12.9 | 0.00 | 0.00 | 0.00 | 100 | 1013.1 |
| 20260903040925 | 62 | 88 | 4.8 | 9.7 | 0.00 | 0.00 | 0.00 | 100 | 1013.1 |
| 20260903040404 | 62 | 158 | 0.0 | 8.0 | 0.00 | 0.00 | 0.00 | 100 | 1013.1 |
| 20260903035856 | 62 | 97 | 0.0 | 8.0 | 0.00 | 0.00 | 0.00 | 100 | 1013.0 |
| 20260903035350 | 62 | 151 | 1.6 | 8.0 | 0.00 | 0.00 | 0.00 | 100 | 1013.1 |
| 20260903034847 | 62 | 129 | 3.2 | 11.3 | 0.00 | 0.00 | 0.00 | 100 | 1013.0 |
| 20260903034342 | 62 | 39 | 3.2 | 12.9 | 0.00 | 0.00 | 0.00 | 100 | 1013.0 |
| 20260903034058 | 62 | 74 | 3.2 | 17.7 | 0.00 | 0.00 | 0.00 | 100 | 1013.1 |
| 20260903033328 | 62 | 97 | 9.7 | 17.7 | 0.00 | 0.00 | 0.00 | 100 | 1013.2 |
| 20260903032829 | 62 | 106 | 8.0 | 17.7 | 0.00 | 0.00 | 0.00 | 100 | 1013.0 |
| 20260903032325 | 63 | 139 | 4.8 | 17.7 | 0.00 | 0.00 | 0.00 | 100 | 1012.9 |
| 20260903031825 | 63 | 135 | 0.0 | 6.4 | 0.00 | 0.00 | 0.00 | 100 | 1012.5 |
| 20260903031326 | 63 | 111 | 0.0 | 6.4 | 0.00 | 0.00 | 0.00 | 100 | 1012.5 |
| 20260903030804 | 63 | 28 | 0.0 | 17.7 | 0.00 | 0.00 | 0.00 | 100 | 1012.3 |
| 20260903030256 | 63 | 28 | 0.0 | 17.7 | 0.00 | 0.00 | 0.00 | 100 | 1012.3 |
| 20260903025756 | 63 | 122 | 0.0 | 0.0 | 0.00 | 0.00 | 0.00 | 100 | 1012.4 |
| 20260903025518 | 63 | 122 | 0.0 | 0.0 | 0.00 | 0.00 | 0.00 | 100 | 1012.1 |
| 20260903024743 | 63 | 122 | 0.0 | 0.0 | 0.00 | 0.00 | 0.00 | 100 | 1012.2 |
| 20260903024232 | 63 | 122 | 0.0 | 0.0 | 0.00 | 0.00 | 0.00 | 100 | 1011.9 |
| 20260903023711 | 63 | 122 | 0.0 | 0.0 | 0.00 | 0.00 | 0.00 | 100 | 1011.8 |
| 20260903023147 | 63 | 122 | 0.0 | 0.0 | 0.00 | 0.00 | 0.00 | 100 | 1011.8 |
| 20260903022644 | 63 | 122 | 0.0 | 0.0 | 0.00 | 0.00 | 0.00 | 100 | 1011.7 |
| 20260903022143 | 63 | 122 | 0.0 | 0.0 | 0.00 | 0.00 | 0.00 | 100 | 1011.6 |
| 20260903021626 | 63 | 122 | 0.0 | 0.0 | 0.00 | 0.00 | 0.00 | 100 | 1011.5 |
| 20260903021124 | 63 | 122 | 0.0 | 0.0 | 0.00 | 0.00 | 0.00 | 100 | 1011.4 |
| 20260903020612 | 63 | 122 | 0.0 | 0.0 | 0.00 | 0.00 | 0.00 | 100 | 1011.4 |
| 20260903020337 | 63 | 122 | 0.0 | 0.0 | 0.00 | 0.00 | 0.00 | 100 | 1011.2 |
| 20260903015546 | 63 | 122 | 0.0 | 0.0 | 0.00 | 0.00 | 0.00 | 100 | 1011.2 |
| 20260903015037 | 63 | 122 | 0.0 | 0.0 | 0.00 | 0.00 | 0.00 | 100 | 1011.1 |
| 20260903014535 | 63 | 122 | 0.0 | 0.0 | 0.00 | 0.00 | 0.00 | 100 | 1011.1 |
| 20260903014025 | 63 | 122 | 0.0 | 0.0 | 0.00 | 0.00 | 0.00 | 100 | 1011.0 |
| 20260903013521 | 63 | 122 | 0.0 | 0.0 | 0.00 | 0.00 | 0.00 | 100 | 1010.9 |
| 20260903012958 | 63 | 122 | 0.0 | 0.0 | 0.00 | 0.00 | 0.00 | 100 | 1010.9 |
| 20260903012726 | 63 | 122 | 0.0 | 0.0 | 0.00 | 0.00 | 0.00 | 100 | 1011.0 |
| 20260903012222 | 63 | 122 | 0.0 | 8.0 | 0.00 | 0.00 | 0.00 | 100 | 1011.0 |
| 20260903011710 | 63 | 122 | 0.0 | 8.0 | 0.00 | 0.00 | 0.00 | 100 | 1011.0 |
| 20260903011210 | 63 | 16 | 0.0 | 0.0 | 0.00 | 0.00 | 0.00 | 100 | 1010.9 |
| 20260903010438 | 63 | 16 | 0.0 | 0.0 | 0.00 | 0.00 | 0.00 | 100 | 1010.9 |
| 20260903005915 | 63 | 16 | 0.0 | 0.0 | 0.00 | 0.00 | 0.00 | 100 | 1010.9 |
| 20260903005414 | 63 | 16 | 0.0 | 0.0 | 0.00 | 0.00 | 0.00 | 100 | 1011.0 |
| 20260903004859 | 63 | 16 | 0.0 | 0.0 | 0.00 | 0.00 | 0.00 | 100 | 1011.0 |
| 20260903004341 | 63 | 16 | 0.0 | 0.0 | 0.00 | 0.00 | 0.00 | 100 | 1011.0 |
| 20260903003838 | 63 | 16 | 0.0 | 0.0 | 0.00 | 0.00 | 0.00 | 100 | 1010.9 |
| 20260903003325 | 63 | 16 | 0.0 | 0.0 | 0.00 | 0.00 | 0.00 | 100 | 1010.9 |
| 20260903002817 | 63 | 16 | 0.0 | 0.0 | 0.00 | 0.00 | 0.00 | 100 | 1010.8 |
| 20260903002306 | 63 | 16 | 0.0 | 1.6 | 0.00 | 0.00 | 0.00 | 100 | 1010.9 |
| 20260903002028 | 63 | 16 | 0.0 | 8.0 | 0.00 | 0.00 | 0.00 | 100 | 1010.9 |
| 20260903001246 | 63 | 16 | 1.6 | 8.0 | 0.00 | 0.00 | 0.00 | 100 | 1010.8 |
| 20260903000741 | 63 | 47 | 0.0 | 11.3 | 0.00 | 0.00 | 0.00 | 100 | 1010.8 |
| 20260903000229 | 63 | 54 | 3.2 | 14.5 | 0.00 | 0.00 | 0.00 | 100 | 1010.8 |
| 20260902235727 | 64 | 33 | 6.4 | 14.5 | 0.00 | 0.00 | 0.00 | 100 | 1010.9 |
| 20260902235227 | 64 | 0 | 6.4 | 17.7 | 0.00 | 0.00 | 0.00 | 100 | 1010.8 |
| 20260902234728 | 65 | 81 | 3.2 | 17.7 | 0.00 | 0.00 | 0.00 | 100 | 1010.8 |
| 20260902234230 | 65 | 125 | 0.0 | 4.8 | 0.00 | 0.00 | 0.00 | 100 | 1010.7 |
| 20260902233711 | 65 | 230 | 0.0 | 0.0 | 0.00 | 0.00 | 0.00 | 100 | 1010.7 |
| 20260902233210 | 65 | 230 | 0.0 | 0.0 | 0.00 | 0.00 | 0.00 | 100 | 1010.6 |
| 20260902232658 | 65 | 230 | 0.0 | 6.4 | 0.00 | 0.00 | 0.00 | 100 | 1010.7 |
| 20260902232157 | 65 | 230 | 0.0 | 8.0 | 0.00 | 0.00 | 0.00 | 100 | 1010.6 |
| 20260902231657 | 65 | 170 | 0.0 | 8.0 | 0.00 | 0.00 | 0.00 | 100 | 1010.6 |
| 20260902231427 | 65 | 299 | 0.0 | 6.4 | 0.00 | 0.00 | 0.00 | 100 | 1010.6 |
| 20260902230654 | 65 | 299 | 0.0 | 6.4 | 0.00 | 0.00 | 0.00 | 100 | 1010.6 |
| 20260902230154 | 65 | 164 | 0.0 | 9.7 | 0.00 | 0.00 | 0.00 | 100 | 1010.6 |
| 20260902225621 | 65 | 293 | 1.6 | 9.7 | 0.00 | 0.00 | 0.00 | 100 | 1010.6 |
| 20260902225113 | 65 | 285 | 0.0 | 6.4 | 0.00 | 0.00 | 0.00 | 100 | 1010.6 |
| 20260902224547 | 65 | 153 | 0.0 | 6.4 | 0.00 | 0.00 | 0.00 | 100 | 1010.6 |
| 20260902224316 | 65 | 326 | 1.6 | 6.4 | 0.00 | 0.00 | 0.00 | 100 | 1010.6 |
| 20260902223537 | 65 | 23 | 0.0 | 9.7 | 0.00 | 0.00 | 0.00 | 100 | 1010.6 |
| 20260902223017 | 65 | 23 | 4.8 | 9.7 | 0.00 | 0.00 | 0.00 | 100 | 1010.6 |
| 20260902222501 | 65 | 226 | 0.0 | 0.0 | 0.00 | 0.00 | 0.00 | 100 | 1010.7 |
| 20260902222222 | 65 | 226 | 0.0 | 0.0 | 0.00 | 0.00 | 0.00 | 100 | 1010.8 |
| 20260902221417 | 65 | 226 | 0.0 | 11.3 | 0.00 | 0.00 | 0.00 | 100 | 1010.7 |
| 20260902220858 | 65 | 226 | 0.0 | 11.3 | 0.00 | 0.00 | 0.00 | 100 | 1010.8 |
| 20260902220342 | 65 | 225 | 0.0 | 11.3 | 0.00 | 0.00 | 0.00 | 100 | 1010.9 |
| 20260902220055 | 65 | 250 | 1.6 | 11.3 | 0.00 | 0.00 | 0.00 | 100 | 1010.9 |
| 20260902215256 | 65 | 147 | 0.0 | 11.3 | 0.00 | 0.00 | 0.00 | 100 | 1010.9 |
| 20260902214744 | 65 | 229 | 4.8 | 11.3 | 0.00 | 0.00 | 0.00 | 100 | 1010.9 |
| 20260902214516 | 65 | 199 | 3.2 | 11.3 | 0.00 | 0.00 | 0.00 | 100 | 1011.0 |
| 20260902213742 | 65 | 255 | 3.2 | 11.3 | 0.00 | 0.00 | 0.00 | 100 | 1011.0 |
| 20260902213244 | 65 | 36 | 0.0 | 0.0 | 0.00 | 0.00 | 0.00 | 100 | 1011.0 |
| 20260902212743 | 65 | 36 | 0.0 | 0.0 | 0.00 | 0.00 | 0.00 | 100 | 1011.0 |
| 20260902212223 | 65 | 36 | 0.0 | 0.0 | 0.00 | 0.00 | 0.00 | 100 | 1011.1 |
| 20260902211659 | 65 | 36 | 0.0 | 0.0 | 0.00 | 0.00 | 0.00 | 100 | 1011.1 |
| 20260902211137 | 65 | 36 | 0.0 | 0.0 | 0.00 | 0.00 | 0.00 | 100 | 1011.1 |
| 20260902210617 | 65 | 36 | 0.0 | 0.0 | 0.00 | 0.00 | 0.00 | 100 | 1011.2 |
| 20260902210111 | 65 | 36 | 0.0 | 0.0 | 0.00 | 0.00 | 0.00 | 100 | 1011.2 |
| 20260902205604 | 65 | 36 | 0.0 | 1.6 | 0.00 | 0.00 | 0.00 | 100 | 1011.4 |
| 20260902205041 | 65 | 36 | 0.0 | 6.4 | 0.00 | 0.00 | 0.00 | 100 | 1011.5 |
| 20260902204534 | 66 | 36 | 0.0 | 11.3 | 0.00 | 0.00 | 0.00 | 100 | 1011.5 |
| 20260902204030 | 66 | 330 | 0.0 | 11.3 | 0.00 | 0.00 | 0.00 | 100 | 1011.6 |
| 20260902203526 | 66 | 2 | 1.6 | 9.7 | 0.00 | 0.00 | 0.00 | 100 | 1011.6 |
| 20260902203026 | 66 | 11 | 0.0 | 11.3 | 0.00 | 0.00 | 0.00 | 100 | 1011.7 |
| 20260902202526 | 65 | 28 | 4.8 | 11.3 | 0.00 | 0.00 | 0.00 | 100 | 1011.8 |
| 20260902202026 | 65 | 12 | 6.4 | 12.9 | 0.00 | 0.00 | 0.00 | 100 | 1011.9 |
| 20260902201526 | 65 | 312 | 6.4 | 12.9 | 0.00 | 0.00 | 0.00 | 100 | 1011.9 |
| 20260902201026 | 65 | 358 | 0.0 | 8.0 | 0.00 | 0.00 | 0.00 | 100 | 1011.9 |
| 20260902200523 | 65 | 358 | 0.0 | 8.0 | 0.00 | 0.00 | 0.00 | 100 | 1012.1 |
| 20260902200250 | 65 | 289 | 0.0 | 8.0 | 0.00 | 0.00 | 0.00 | 100 | 1012.1 |
| 20260902195516 | 66 | 264 | 1.6 | 9.7 | 0.00 | 0.00 | 0.00 | 100 | 1012.2 |
| 20260902195013 | 66 | 358 | 0.0 | 9.7 | 0.00 | 0.00 | 0.00 | 100 | 1012.2 |
| 20260902194515 | 66 | 180 | 0.0 | 0.0 | 0.00 | 0.00 | 0.00 | 100 | 1012.3 |
| 20260902194009 | 66 | 180 | 0.0 | 0.0 | 0.00 | 0.00 | 0.00 | 100 | 1012.4 |
| 20260902193458 | 66 | 180 | 0.0 | 4.8 | 0.00 | 0.00 | 0.00 | 100 | 1012.5 |
| 20260902192948 | 65 | 180 | 0.0 | 8.0 | 0.00 | 0.00 | 0.00 | 100 | 1012.6 |
| 20260902192443 | 65 | 358 | 1.6 | 8.0 | 0.00 | 0.00 | 0.00 | 100 | 1012.6 |
| 20260902191922 | 66 | 180 | 0.0 | 8.0 | 0.00 | 0.00 | 0.00 | 100 | 1012.9 |
| 20260902191417 | 66 | 188 | 0.0 | 8.0 | 0.00 | 0.00 | 0.00 | 100 | 1012.9 |
| 20260902190858 | 66 | 191 | 0.0 | 9.7 | 0.00 | 0.00 | 0.00 | 100 | 1012.9 |
| 20260902190348 | 66 | 272 | 6.4 | 9.7 | 0.00 | 0.00 | 0.00 | 100 | 1013.0 |
| 20260902185844 | 66 | 350 | 1.6 | 9.7 | 0.00 | 0.00 | 0.00 | 100 | 1013.1 |
| 20260902185325 | 65 | 52 | 0.0 | 11.3 | 0.00 | 0.00 | 0.00 | 100 | 1013.2 |
| 20260902184806 | 66 | 209 | 4.8 | 11.3 | 0.00 | 0.00 | 0.00 | 100 | 1013.3 |
| 20260902184307 | 66 | 295 | 0.0 | 8.0 | 0.00 | 0.00 | 0.00 | 100 | 1013.4 |
| 20260902183757 | 66 | 268 | 0.0 | 6.4 | 0.00 | 0.00 | 0.00 | 100 | 1013.5 |
| 20260902183246 | 66 | 40 | 0.0 | 9.7 | 0.00 | 0.00 | 0.00 | 100 | 1013.6 |
| 20260902182717 | 66 | 52 | 0.0 | 9.7 | 0.00 | 0.00 | 0.00 | 100 | 1013.8 |
| 20260902182217 | 66 | 196 | 0.0 | 9.7 | 0.00 | 0.00 | 0.00 | 100 | 1014.0 |
| 20260902181717 | 66 | 196 | 0.0 | 9.7 | 0.00 | 0.00 | 0.00 | 100 | 1014.1 |
| 20260902181200 | 66 | 241 | 0.0 | 9.7 | 0.00 | 0.00 | 0.00 | 100 | 1014.1 |
| 20260902180657 | 66 | 241 | 1.6 | 9.7 | 0.00 | 0.00 | 0.00 | 100 | 1014.3 |
| 20260902180158 | 66 | 198 | 1.6 | 9.7 | 0.00 | 0.00 | 0.00 | 100 | 1014.3 |
| 20260902175928 | 65 | 127 | 6.4 | 9.7 | 0.00 | 0.00 | 0.00 | 100 | 1014.4 |
| 20260902175158 | 66 | 225 | 1.6 | 9.7 | 0.00 | 0.00 | 0.00 | 100 | 1014.6 |
| 20260902174657 | 66 | 305 | 0.0 | 14.5 | 0.00 | 0.00 | 0.00 | 100 | 1014.6 |
| 20260902174156 | 66 | 355 | 8.0 | 14.5 | 0.00 | 0.00 | 0.00 | 100 | 1014.8 |
| 20260902173658 | 66 | 331 | 3.2 | 12.9 | 0.00 | 0.00 | 0.00 | 100 | 1014.8 |
| 20260902173156 | 66 | 326 | 1.6 | 12.9 | 0.00 | 0.00 | 0.00 | 100 | 1015.0 |
| 20260902172656 | 65 | 344 | 8.0 | 12.9 | 0.00 | 0.00 | 0.00 | 100 | 1015.0 |
| 20260902172156 | 65 | 219 | 4.8 | 9.7 | 0.00 | 0.00 | 0.00 | 100 | 1015.2 |
| 20260902171928 | 65 | 240 | 0.0 | 12.9 | 0.00 | 0.00 | 0.00 | 100 | 1015.2 |
| 20260902171156 | 65 | 0 | 6.4 | 12.9 | 0.00 | 0.00 | 0.00 | 100 | 1015.2 |
| 20260902170928 | 65 | 247 | 6.4 | 12.9 | 0.00 | 0.00 | 0.00 | 100 | 1015.2 |
| 20260902170149 | 65 | 358 | 4.8 | 12.9 | 0.00 | 0.00 | 0.00 | 100 | 1015.3 |
| 20260902165648 | 65 | 295 | 3.2 | 12.9 | 0.00 | 0.00 | 0.00 | 100 | 1015.3 |
| 20260902165148 | 65 | 334 | 3.2 | 12.9 | 0.00 | 0.00 | 0.00 | 100 | 1015.4 |
| 20260902164648 | 65 | 357 | 3.2 | 8.0 | 0.00 | 0.00 | 0.00 | 100 | 1015.6 |
| 20260902164145 | 65 | 236 | 0.0 | 8.0 | 0.00 | 0.00 | 0.00 | 100 | 1015.7 |
| 20260902163643 | 65 | 282 | 3.2 | 9.7 | 0.00 | 0.00 | 0.00 | 100 | 1015.8 |
| 20260902163142 | 65 | 302 | 0.0 | 14.5 | 0.00 | 0.00 | 0.00 | 100 | 1015.8 |
| 20260902162632 | 65 | 184 | 8.0 | 14.5 | 0.00 | 0.00 | 0.00 | 100 | 1015.9 |
| 20260902162128 | 65 | 219 | 6.4 | 14.5 | 0.00 | 0.00 | 0.00 | 100 | 1015.9 |
| 20260902161857 | 65 | 142 | 0.0 | 14.5 | 0.00 | 0.00 | 0.00 | 100 | 1015.9 |
| 20260902161113 | 65 | 201 | 0.0 | 9.7 | 0.00 | 0.00 | 0.00 | 100 | 1015.8 |
| 20260902160611 | 65 | 288 | 1.6 | 12.9 | 0.00 | 0.00 | 0.00 | 100 | 1015.8 |
| 20260902160605 | 65 | 338 | 3.2 | 12.9 | 0.00 | 0.00 | 0.00 | 100 | 1015.8 |
| 20260902155603 | 65 | 11 | 0.0 | 8.0 | 0.00 | 0.00 | 0.00 | 100 | 1015.9 |
| 20260902155047 | 64 | 358 | 1.6 | 8.0 | 0.00 | 0.00 | 0.00 | 100 | 1015.9 |
| 20260902154818 | 64 | 118 | 1.6 | 9.7 | 0.00 | 0.00 | 0.00 | 100 | 1015.8 |
| 20260902154316 | 64 | 227 | 3.2 | 11.3 | 0.00 | 0.00 | 0.00 | 100 | 1015.9 |
| 20260902153540 | 64 | 313 | 0.0 | 11.3 | 0.00 | 0.00 | 0.00 | 100 | 1015.9 |
| 20260902153302 | 64 | 291 | 4.8 | 9.7 | 0.00 | 0.00 | 0.00 | 100 | 1015.9 |
| 20260902152532 | 64 | 262 | 1.6 | 9.7 | 0.00 | 0.00 | 0.00 | 100 | 1015.9 |
| 20260902152011 | 63 | 240 | 4.8 | 11.3 | 0.00 | 0.00 | 0.00 | 100 | 1015.9 |
| 20260902151507 | 63 | 302 | 0.0 | 11.3 | 0.00 | 0.00 | 0.00 | 100 | 1015.8 |
| 20260902150956 | 63 | 345 | 1.6 | 8.0 | 0.00 | 0.00 | 0.00 | 100 | 1015.8 |
| 20260902150449 | 63 | 267 | 1.6 | 9.7 | 0.00 | 0.00 | 0.00 | 100 | 1015.7 |
| 20260902145941 | 63 | 223 | 3.2 | 9.7 | 0.00 | 0.00 | 0.00 | 100 | 1015.7 |
| 20260902145424 | 63 | 175 | 1.6 | 9.7 | 0.00 | 0.00 | 0.00 | 100 | 1015.7 |
| 20260902144918 | 63 | 337 | 4.8 | 11.3 | 0.00 | 0.00 | 0.00 | 100 | 1015.7 |
| 20260902144417 | 63 | 307 | 1.6 | 16.1 | 0.00 | 0.00 | 0.00 | 100 | 1015.7 |
| 20260902143914 | 63 | 63 | 4.8 | 16.1 | 0.00 | 0.00 | 0.00 | 100 | 1015.7 |
| 20260902143414 | 63 | 2 | 3.2 | 11.3 | 0.00 | 0.00 | 0.00 | 100 | 1015.7 |
| 20260902143140 | 63 | 210 | 1.6 | 12.9 | 0.00 | 0.00 | 0.00 | 100 | 1015.7 |
| 20260902142409 | 63 | 217 | 0.0 | 12.9 | 0.00 | 0.00 | 0.00 | 100 | 1015.6 |
| 20260902141909 | 63 | 199 | 0.0 | 12.9 | 0.00 | 0.00 | 0.00 | 100 | 1015.7 |
| 20260902141404 | 63 | 213 | 4.8 | 12.9 | 0.00 | 0.00 | 0.00 | 100 | 1015.6 |
| 20260902140859 | 63 | 151 | 4.8 | 11.3 | 0.00 | 0.00 | 0.00 | 100 | 1015.7 |
| 20260902140359 | 63 | 268 | 8.0 | 11.3 | 0.00 | 0.00 | 0.00 | 100 | 1015.7 |
| 20260902135858 | 63 | 299 | 1.6 | 8.0 | 0.00 | 0.00 | 0.00 | 100 | 1015.7 |
| 20260902135357 | 62 | 154 | 0.0 | 6.4 | 0.00 | 0.00 | 0.00 | 100 | 1015.6 |
| 20260902134856 | 62 | 206 | 0.0 | 6.4 | 0.00 | 0.00 | 0.00 | 100 | 1015.7 |
| 20260902134344 | 62 | 208 | 0.0 | 0.0 | 0.00 | 0.00 | 0.00 | 100 | 1015.6 |
| 20260902133832 | 62 | 208 | 0.0 | 4.8 | 0.00 | 0.00 | 0.00 | 100 | 1015.6 |
| 20260902133308 | 62 | 208 | 0.0 | 4.8 | 0.00 | 0.00 | 0.00 | 100 | 1015.6 |
| 20260902132758 | 62 | 135 | 0.0 | 0.0 | 0.00 | 0.00 | 0.00 | 100 | 1015.6 |
| 20260902132252 | 62 | 135 | 0.0 | 0.0 | 0.00 | 0.00 | 0.00 | 100 | 1015.4 |
| 20260902132020 | 62 | 135 | 0.0 | 0.0 | 0.00 | 0.00 | 0.00 | 100 | 1015.3 |
| 20260902131521 | 62 | 135 | 0.0 | 0.0 | 0.00 | 0.00 | 0.00 | 100 | 1015.3 |
| 20260902130738 | 62 | 135 | 0.0 | 0.0 | 0.00 | 0.00 | 0.00 | 100 | 1015.2 |
| 20260902130228 | 62 | 135 | 0.0 | 0.0 | 0.00 | 0.00 | 0.00 | 100 | 1015.2 |
| 20260902125725 | 62 | 135 | 0.0 | 0.0 | 0.00 | 0.00 | 0.00 | 100 | 1015.1 |
| 20260902125211 | 62 | 135 | 0.0 | 0.0 | 0.00 | 0.00 | 0.00 | 100 | 1015.2 |
| 20260902124659 | 61 | 135 | 0.0 | 0.0 | 0.00 | 0.00 | 0.00 | 100 | 1015.1 |
| 20260902124148 | 61 | 135 | 0.0 | 0.0 | 0.00 | 0.00 | 0.00 | 100 | 1015.1 |
| 20260902123635 | 61 | 135 | 0.0 | 0.0 | 0.00 | 0.00 | 0.00 | 100 | 1015.1 |
| 20260902123134 | 61 | 135 | 0.0 | 0.0 | 0.00 | 0.00 | 0.00 | 100 | 1015.0 |
| 20260902123129 | 61 | 135 | 0.0 | 0.0 | 0.00 | 0.00 | 0.00 | 100 | 1015.0 |
| 20260902122126 | 61 | 135 | 0.0 | 0.0 | 0.00 | 0.00 | 0.00 | 100 | 1015.0 |
| 20260902121610 | 61 | 135 | 0.0 | 0.0 | 0.00 | 0.00 | 0.00 | 100 | 1014.8 |
| 20260902121048 | 61 | 135 | 0.0 | 0.0 | 0.00 | 0.00 | 0.00 | 100 | 1014.9 |
| 20260902120528 | 61 | 135 | 0.0 | 0.0 | 0.00 | 0.00 | 0.00 | 100 | 1014.9 |
| 20260902120026 | 61 | 135 | 0.0 | 0.0 | 0.00 | 0.00 | 0.00 | 100 | 1014.9 |
| 20260902115527 | 61 | 135 | 0.0 | 0.0 | 0.00 | 0.00 | 0.00 | 100 | 1014.9 |
| 20260902115016 | 61 | 135 | 0.0 | 0.0 | 0.00 | 0.00 | 0.00 | 100 | 1014.8 |
| 20260902114502 | 61 | 135 | 0.0 | 0.0 | 0.00 | 0.00 | 0.00 | 100 | 1014.7 |
| 20260902113941 | 61 | 135 | 0.0 | 0.0 | 0.00 | 0.00 | 0.00 | 100 | 1014.7 |
| 20260902113916 | 61 | 135 | 0.0 | 0.0 | 0.00 | 0.00 | 0.00 | 100 | 1014.7 |
| 20260902112856 | 61 | 135 | 0.0 | 0.0 | 0.00 | 0.00 | 0.00 | 100 | 1014.7 |
| 20260902112333 | 61 | 135 | 0.0 | 0.0 | 0.00 | 0.00 | 0.00 | 100 | 1014.7 |
| 20260902111812 | 61 | 135 | 0.0 | 0.0 | 0.00 | 0.00 | 0.00 | 100 | 1014.7 |
| 20260902111305 | 61 | 135 | 0.0 | 0.0 | 0.00 | 0.00 | 0.00 | 100 | 1014.7 |
| 20260902110800 | 61 | 135 | 0.0 | 0.0 | 0.00 | 0.00 | 0.00 | 100 | 1014.7 |
| 20260902110252 | 61 | 135 | 0.0 | 0.0 | 0.00 | 0.00 | 0.00 | 100 | 1014.7 |
| 20260902105750 | 61 | 135 | 0.0 | 0.0 | 0.00 | 0.00 | 0.00 | 100 | 1014.6 |
| 20260902105242 | 62 | 135 | 0.0 | 0.0 | 0.00 | 0.00 | 0.00 | 100 | 1014.7 |
| 20260902104742 | 61 | 135 | 0.0 | 0.0 | 0.00 | 0.00 | 0.00 | 100 | 1014.7 |
| 20260902104235 | 62 | 135 | 0.0 | 0.0 | 0.00 | 0.00 | 0.00 | 100 | 1014.7 |
| 20260902103720 | 61 | 135 | 0.0 | 0.0 | 0.00 | 0.00 | 0.00 | 100 | 1014.7 |